GFSCGP_700_temp_057.txt.gz
Temp
16 16 16 17 18 18 18 18 17 17 19 18 19 19 19 18 18 17 15 13 13 13 13 14 14 14 14 13 13 12 11 11 11 11 10 10 10 10 9 9 8 8 8 8
16 16 17 17 18 18 17 17 18 17 18 18 19 20 20 18 16 15 16 15 17 14 13 13 13 13 14 14 13 13 11 11 12 11 11 10 10 10 10 9 9 9 9 8
16 17 17 18 18 18 19 17 18 18 19 18 19 20 19 17 19 17 17 17 18 17 14 15 14 13 13 13 13 12 12 11 11 11 11 11 10 10 10 9 9 9 9 9
17 17 18 18 19 19 19 19 19 19 18 18 20 20 19 19 18 18 18 16 17 17 14 14 15 13 13 14 13 12 12 12 11 11 11 10 10 10 10 9 9 9 9 9
17 17 18 18 18 18 19 19 19 19 19 20 20 19 17 18 19 18 18 17 16 16 15 15 16 15 14 14 13 12 12 12 12 11 11 10 10 10 9 9 9 9 9 9
17 17 17 18 18 18 18 19 19 19 19 18 19 19 18 18 19 19 18 17 17 16 15 15 15 15 14 14 13 12 12 11 11 10 11 10 10 9 9 8 9 9 9 9
16 17 17 18 18 18 18 18 18 16 15 14 19 19 18 19 18 18 17 17 17 16 15 14 14 15 14 14 13 12 12 11 11 10 10 10 10 9 9 8 8 9 9 9
16 17 17 17 18 18 18 18 18 14 13 16 19 19 19 18 18 17 17 17 16 15 15 13 13 15 14 14 13 12 11 11 11 10 10 10 9 8 8 7 7 7 8 9
16 17 18 18 18 18 18 18 18 18 19 17 18 17 17 18 18 18 17 17 16 15 15 14 13 14 13 13 13 12 12 11 11 10 10 10 9 7 7 6 6 7 8 8
17 16 17 18 18 18 18 18 18 18 15 15 16 16 18 17 17 17 17 16 16 15 14 13 14 14 13 14 14 13 12 11 10 10 10 10 8 7 5 5 6 7 8 8
17 17 17 17 18 18 18 18 18 18 18 14 12 15 18 18 17 17 13 15 15 15 14 14 14 14 14 14 13 12 11 10 10 10 11 10 8 7 7 6 7 7 8 8
17 17 17 17 18 18 18 18 18 18 18 18 17 17 17 16 16 15 14 10 16 15 14 13 13 15 14 12 12 12 10 10 10 10 10 10 9 8 7 7 7 7 7 8
17 17 17 17 17 18 18 18 18 18 18 18 16 17 14 13 15 14 11 13 14 14 13 13 12 13 12 12 12 11 10 10 10 10 10 9 9 9 8 8 7 8 7 7
16 16 16 16 17 17 16 18 18 18 18 18 18 16 11 12 14 12 11 13 14 13 13 13 12 12 12 11 11 10 10 10 10 10 10 9 9 9 9 8 8 8 7 7
15 15 15 16 16 16 17 17 17 17 18 17 17 16 13 14 13 10 15 16 15 13 12 13 14 13 12 12 11 11 10 10 10 10 10 9 8 8 8 8 7 7 7 7
14 14 15 15 16 16 16 17 17 17 17 17 15 16 15 15 16 14 15 15 13 11 12 13 14 14 13 12 11 11 10 10 10 10 10 9 8 7 6 6 6 6 6 6
13 14 14 14 14 15 15 16 16 17 17 17 15 15 16 15 15 15 14 14 13 11 12 13 14 13 13 12 12 10 10 10 10 10 10 8 8 8 7 7 6 6 6 6
12 12 13 13 14 12 15 16 16 16 17 17 16 16 16 15 14 14 14 14 13 14 14 13 13 13 13 13 13 11 10 10 10 9 9 9 8 8 7 7 7 6 5 5
12 12 13 12 13 14 14 15 15 16 17 17 16 16 14 13 14 14 13 12 13 13 13 12 12 12 12 12 13 12 10 10 10 10 10 9 8 7 7 7 7 7 6 6
12 12 13 13 12 11 14 15 15 15 15 14 15 15 14 15 15 13 14 14 13 12 12 12 12 13 12 11 11 11 10 9 9 10 9 9 8 8 7 7 7 7 6 6
12 12 12 12 13 13 13 14 14 14 11 13 12 12 14 15 15 14 14 13 12 12 12 12 12 13 12 12 11 10 10 9 9 9 9 9 8 8 7 7 7 6 6 6
11 11 12 12 13 12 11 12 12 13 10 10 11 10 7 10 12 13 13 12 12 12 12 13 13 12 12 11 10 10 10 9 9 9 9 9 9 8 8 8 7 7 6 6
10 9 9 10 11 10 10 10 11 11 11 11 9 9 5 8 9 11 12 13 12 12 12 13 12 12 11 10 10 10 9 9 9 9 9 9 9 9 8 8 8 7 7 6
8 8 9 9 10 8 8 9 9 9 10 10 11 8 6 7 7 10 12 12 12 12 12 12 12 11 10 10 9 9 9 9 9 9 8 8 8 8 8 8 7 7 7 6
7 8 7 7 7 8 7 8 9 8 8 9 10 8 9 5 8 11 11 11 12 11 11 11 11 10 10 9 9 9 9 9 8 8 8 8 8 8 8 8 7 7 7 7
7 6 7 7 7 6 7 6 5 6 6 6 8 7 8 8 9 9 9 10 10 11 10 10 10 9 9 8 8 8 9 9 9 9 8 8 8 8 8 7 7 7 7 7

GFSCGP_700_temp_060.txt.gz
Temp
15 15 15 16 17 17 17 17 18 18 17 18 18 19 18 18 17 16 15 17 16 16 13 13 13 13 13 13 13 12 12 11 11 11 10 10 10 9 9 9 8 8 8 7
15 15 16 16 17 17 17 17 18 19 18 18 18 19 18 18 18 17 17 17 16 15 13 14 13 13 13 13 13 12 12 11 11 10 11 10 10 9 9 9 8 8 8 8
15 17 16 16 17 18 17 17 17 18 19 19 18 18 18 19 18 17 17 17 15 15 15 15 15 14 13 13 12 12 12 11 11 11 11 10 10 10 9 9 9 8 8 8
15 16 16 17 17 18 18 18 18 18 18 18 18 17 18 18 17 17 17 17 16 15 15 14 15 14 13 13 12 12 12 11 11 11 11 10 10 10 9 9 8 9 9 8
16 16 16 17 17 18 18 18 18 18 18 18 18 17 18 17 17 17 18 17 16 15 16 15 15 14 12 14 12 12 11 11 11 11 10 10 10 10 9 9 9 9 9 8
15 16 16 17 17 18 18 18 18 18 18 17 18 18 18 18 18 18 17 16 16 15 16 15 14 13 13 14 13 12 11 11 11 11 10 10 10 9 9 9 8 8 9 8
16 16 16 17 17 18 18 18 17 16 14 14 18 18 19 18 18 18 17 17 17 16 15 15 13 13 13 13 13 12 11 11 11 10 10 10 10 9 9 8 8 8 8 9
15 16 17 17 17 18 18 18 17 14 12 16 18 18 18 18 18 17 17 17 17 16 15 14 15 15 14 13 12 11 11 10 11 10 10 10 9 8 8 7 7 7 7 8
15 16 16 16 17 17 17 18 18 18 15 16 17 18 17 17 17 17 17 16 16 16 16 14 15 15 14 13 11 11 11 10 10 10 10 10 9 8 6 6 6 6 7 8
16 16 17 17 17 17 17 18 17 17 14 13 15 17 17 17 17 17 17 16 15 13 11 14 14 14 13 11 11 11 11 11 10 10 10 10 9 7 7 6 6 7 7 8
16 16 17 17 17 17 17 18 18 17 17 13 10 16 17 16 17 16 16 15 14 9 11 12 15 14 12 11 12 11 11 11 10 10 10 10 9 8 7 7 7 7 7 8
16 16 16 17 17 17 17 17 18 18 17 16 17 16 17 16 16 17 16 15 15 12 10 11 14 12 12 12 12 12 11 11 10 10 10 10 9 8 8 8 8 8 8 7
16 16 17 16 17 17 17 17 16 17 18 17 15 16 17 16 16 16 17 16 15 13 13 12 12 12 12 13 12 11 11 11 10 10 10 10 9 9 9 9 8 8 8 7
15 15 17 16 16 15 16 16 17 17 16 17 16 16 16 16 15 16 16 15 15 14 14 13 12 12 12 12 11 11 10 11 10 10 10 10 9 8 8 8 8 7 8 7
14 14 15 16 16 15 15 16 17 16 16 17 16 15 16 16 17 16 16 17 14 13 12 13 13 12 12 12 12 11 10 10 11 10 10 9 9 9 8 7 7 7 7 7
14 14 14 15 16 15 15 16 16 16 16 16 16 15 15 15 14 15 15 15 14 14 12 14 13 12 12 12 11 11 10 10 10 10 10 9 9 8 8 7 7 7 7 7
13 13 13 14 14 14 15 15 16 15 16 15 15 16 15 15 15 14 15 14 14 13 14 15 13 13 12 12 11 10 10 10 10 10 10 10 8 8 8 7 6 6 6 6
12 12 12 13 13 11 14 15 15 15 15 15 16 16 16 15 15 14 14 14 14 14 15 14 13 13 12 11 11 11 10 10 10 10 10 10 9 7 7 7 6 6 6 7
12 12 12 12 12 13 13 14 14 14 15 14 15 16 15 13 13 14 14 14 14 14 14 13 12 12 12 12 11 11 11 10 10 10 10 10 9 8 7 7 6 6 6 7
12 12 11 12 11 10 12 13 13 12 13 13 15 15 14 14 13 13 13 13 14 14 12 12 12 12 12 11 11 11 11 10 10 10 10 10 9 9 8 7 7 6 6 6
11 12 12 12 11 12 11 12 13 12 11 12 14 14 14 14 14 14 12 12 9 11 12 12 12 12 12 12 12 11 10 10 9 9 9 9 9 8 8 8 7 7 6 6
10 10 11 11 11 10 9 10 11 10 10 10 11 11 12 12 13 13 11 10 9 10 11 12 12 12 12 12 11 11 10 10 9 9 9 9 9 8 8 7 7 7 7 6
8 8 8 8 7 7 8 9 8 9 10 10 10 10 11 12 12 12 11 12 9 9 11 12 12 12 12 11 11 11 10 9 9 9 9 9 9 8 8 7 7 7 7 7
7 7 7 7 7 7 7 7 7 8 9 9 9 10 9 9 10 11 10 11 7 9 11 11 12 11 11 11 10 10 9 9 9 8 8 8 8 8 8 8 7 7 7 7
6 6 6 6 6 6 6 6 6 7 7 7 9 9 9 7 7 8 8 9 7 7 10 11 11 11 10 10 10 9 9 8 8 8 8 8 8 8 8 7 7 7 7 7
6 6 5 5 5 6 7 8 8 8 8 8 8 8 6 6 6 5 5 6 6 8 9 10 10 10 9 9 8 9 8 8 8 8 8 8 8 8 8 8 8 8 7 7

GFSCGP_700_temp_063.txt.gz
Temp
14 15 15 15 16 16 16 16 17 18 17 16 17 17 17 17 17 17 17 18 17 16 15 14 14 13 13 13 12 12 11 10 10 10 10 10 9 9 9 9 9 9 9 8
14 14 15 15 15 15 16 16 17 18 17 17 18 18 18 18 18 18 18 18 17 16 15 14 14 13 13 12 12 12 11 11 11 11 10 10 9 9 9 9 9 9 8 8
14 15 15 15 15 16 16 16 18 18 18 18 18 19 19 18 19 19 18 17 17 16 16 14 14 13 13 12 12 12 10 10 10 10 10 10 10 10 9 9 9 9 8 8
14 16 15 16 16 16 16 17 18 18 17 17 18 17 18 19 19 19 18 17 17 16 15 15 14 13 13 12 11 11 11 11 10 10 10 10 10 10 9 9 8 8 8 8
15 15 15 15 16 16 17 18 18 18 17 17 17 16 18 18 18 19 18 17 17 16 15 15 14 14 12 12 11 11 11 11 10 10 10 10 10 10 9 9 8 8 8 8
15 15 15 16 16 16 17 17 18 17 17 15 17 17 18 18 18 18 18 18 17 17 16 15 14 14 13 12 11 10 10 11 10 10 10 10 10 10 9 9 8 8 8 7
15 15 15 15 16 16 17 17 16 14 12 13 17 16 18 18 19 18 17 18 17 16 16 15 14 14 13 12 11 11 11 10 10 10 10 10 10 9 8 8 7 7 7 7
15 15 16 16 16 16 17 17 17 13 11 14 17 17 18 18 18 18 18 17 17 16 15 14 12 13 13 13 11 11 11 10 10 10 10 10 10 9 8 7 7 6 6 7
15 15 15 16 16 16 17 17 17 17 14 14 16 17 18 17 17 18 17 17 17 17 16 15 13 12 12 12 12 12 11 11 11 10 10 10 10 9 8 6 6 6 6 7
15 15 16 16 16 16 17 17 16 16 12 13 15 16 17 17 17 17 17 17 17 17 15 14 11 11 11 11 12 12 11 11 11 10 10 10 10 9 9 8 7 6 7 7
15 15 16 16 16 17 17 16 17 16 16 11 10 16 16 17 17 17 17 17 17 15 15 13 12 12 11 10 11 12 11 11 11 10 10 10 10 9 8 8 8 8 8 8
15 15 15 16 16 16 16 17 17 16 16 15 15 17 16 17 17 17 16 16 15 14 14 13 11 12 10 10 11 11 11 10 11 11 10 10 9 9 8 8 8 8 8 8
16 15 15 16 16 16 16 17 16 16 17 16 14 17 17 16 16 16 15 15 14 15 16 15 12 11 12 11 11 11 10 11 10 11 10 9 9 9 8 8 8 8 8 8
14 15 15 15 16 16 16 16 15 16 16 16 16 16 17 17 17 17 16 15 15 15 14 14 14 13 12 10 10 11 10 10 10 10 10 9 9 9 8 7 7 7 7 7
14 14 14 15 14 15 15 16 15 16 15 15 15 16 16 17 17 17 16 16 16 15 14 13 13 13 11 11 11 11 11 10 10 10 10 9 9 9 9 8 7 7 7 7
13 14 14 14 14 14 15 15 16 15 15 15 15 16 15 16 16 16 16 15 15 14 13 13 12 11 11 12 11 11 11 11 10 10 10 9 8 8 8 8 8 6 5 5
12 13 13 14 13 14 15 14 15 15 14 14 14 15 15 16 16 16 15 15 15 15 13 13 12 12 12 12 12 12 11 11 10 10 10 9 8 8 8 7 7 7 5 5
12 12 12 13 13 12 13 13 13 13 13 13 13 14 15 16 15 15 15 15 14 14 13 13 12 11 12 12 12 11 11 11 10 10 10 9 9 8 8 7 7 7 7 5
11 11 11 12 12 12 13 12 12 12 12 13 13 14 15 15 14 14 14 14 14 14 13 11 11 11 12 11 11 12 12 11 10 10 10 9 9 9 8 8 7 7 7 6
11 11 11 11 11 10 10 12 11 12 12 11 12 13 14 15 14 14 13 13 13 12 11 10 11 10 11 10 11 11 11 10 10 10 10 10 9 9 8 8 8 7 7 6
10 11 11 11 11 10 10 11 11 11 11 11 11 12 13 13 12 12 12 12 11 10 10 11 10 9 8 9 10 10 10 10 10 10 9 9 9 8 8 8 8 8 7 7
9 9 9 9 10 9 9 9 10 8 9 10 10 11 11 11 9 10 10 10 10 10 10 10 9 10 8 9 9 10 9 9 10 9 8 8 8 8 7 8 8 7 7 7
7 7 7 7 6 7 7 8 8 8 9 9 9 9 10 9 9 9 9 9 9 9 9 9 9 9 10 8 9 8 9 9 9 8 8 8 8 8 8 7 7 8 7 6
6 6 6 6 6 6 6 7 7 7 8 9 10 9 9 9 10 9 10 9 9 9 7 9 9 9 9 9 9 9 9 9 9 8 8 8 8 8 8 8 7 7 7 7
6 6 6 5 6 6 6 6 7 8 8 8 8 9 9 9 9 9 9 9 9 7 7 8 8 9 10 10 9 9 8 8 9 8 8 8 8 8 8 8 7 7 7 7
5 5 5 5 5 5 5 6 7 7 8 8 8 8 9 9 9 9 9 8 7 6 6 7 7 7 8 9 8 8 8 8 8 8 8 7 8 8 8 8 8 7 7 8

GFSCGP_700_temp_069.txt.gz
Temp
13 14 14 14 15 15 15 16 16 17 16 16 17 17 17 16 17 17 17 16 15 15 14 14 14 13 13 13 12 11 10 9 9 9 10 9 9 9 8 9 9 9 8 8
13 14 14 14 14 15 15 15 16 17 16 17 16 17 17 17 18 18 17 17 16 15 15 14 14 14 13 12 11 10 10 10 8 8 9 9 9 9 9 8 9 9 9 8
13 14 14 14 14 14 14 15 16 16 16 16 16 16 17 18 18 18 18 18 18 16 15 14 14 14 13 12 11 10 9 9 8 8 9 9 9 9 9 9 8 8 8 8
14 14 14 14 14 14 14 15 16 16 15 16 16 17 18 18 18 18 18 18 19 17 16 15 14 14 13 13 12 12 7 10 9 8 9 9 9 8 8 8 8 8 8 8
14 14 14 14 14 14 15 15 16 16 17 16 15 16 17 18 18 18 18 18 18 18 18 16 15 14 14 13 13 13 11 11 10 10 9 9 9 9 8 8 8 8 8 8
14 14 14 14 14 15 15 15 15 16 16 16 15 16 18 18 18 18 18 18 18 18 18 17 15 14 14 13 13 13 11 10 10 11 10 9 9 9 9 8 8 7 7 7
13 14 14 14 14 14 15 15 16 16 17 18 16 15 18 18 18 18 18 18 18 18 18 17 16 15 14 12 9 10 10 10 11 10 10 10 9 9 9 8 8 7 6 6
13 14 14 15 14 15 15 15 16 16 17 18 16 16 17 17 18 18 18 18 18 18 18 17 16 14 14 12 11 14 11 10 11 10 10 10 9 9 9 8 7 6 6 6
14 14 15 15 15 15 15 15 16 16 14 15 16 17 17 17 17 18 18 18 18 18 18 17 16 15 14 12 12 11 12 11 11 11 10 10 10 9 9 9 8 6 6 6
14 14 14 14 14 15 15 16 15 15 15 15 15 16 17 17 17 17 18 18 17 17 17 16 16 15 14 13 12 12 12 11 11 11 10 10 10 9 9 9 8 7 7 7
14 14 14 14 15 15 15 15 15 15 15 17 17 17 17 17 17 18 18 18 17 16 16 16 15 14 13 11 11 10 10 11 11 10 9 10 10 9 9 8 8 8 7 7
14 14 14 14 15 15 15 15 15 15 14 14 15 17 17 17 17 17 18 17 17 16 16 15 14 14 12 12 12 9 10 12 11 10 10 10 9 9 9 8 8 8 8 7
14 14 15 14 14 14 15 15 15 15 15 15 16 17 17 17 17 17 17 17 16 16 15 14 14 14 12 11 12 11 11 10 11 11 10 10 10 10 8 7 8 8 7 7
13 14 14 16 15 15 15 15 15 15 15 15 15 16 16 16 17 17 17 17 16 15 14 13 13 13 13 12 11 11 11 11 11 10 10 10 10 10 9 9 8 7 7 7
13 13 14 14 15 15 15 15 15 15 15 16 16 15 15 16 16 16 17 17 15 14 14 13 13 13 13 12 11 11 11 11 10 10 9 9 9 9 9 9 8 8 7 6
12 13 13 13 13 13 14 14 14 14 15 15 15 15 15 15 15 15 16 16 15 14 13 13 13 13 12 12 11 10 10 10 9 9 9 9 9 9 8 8 8 8 7 6
12 12 13 13 13 13 13 13 14 14 14 14 14 14 15 15 15 15 15 16 15 14 13 12 12 12 12 11 10 10 10 10 10 9 9 9 9 8 8 8 8 8 7 6
11 12 12 12 12 13 11 12 13 13 13 13 13 13 14 14 15 15 15 15 15 15 14 12 12 12 11 10 10 11 10 9 10 10 9 9 9 8 7 8 8 8 7 7
11 11 11 11 11 10 10 10 11 12 12 13 13 13 13 13 13 14 14 15 15 15 13 12 12 12 11 11 11 11 11 10 9 9 9 9 9 8 8 8 8 8 7 7
10 10 10 10 11 11 10 10 10 11 11 12 12 12 12 13 12 13 13 13 13 13 12 11 11 11 11 11 11 11 10 11 10 10 9 8 8 8 8 8 8 7 7 7
9 9 9 10 10 9 9 9 10 10 10 11 11 11 11 12 12 12 12 12 11 11 10 11 9 10 10 10 10 10 10 10 10 10 10 9 8 8 8 8 7 7 7 6
8 9 9 9 8 8 8 9 9 9 9 9 10 10 10 11 11 11 11 10 10 10 10 9 9 9 10 10 10 10 10 10 10 9 9 9 8 8 8 8 7 7 7 7
7 7 8 8 7 7 8 7 8 8 8 8 8 9 9 10 10 10 10 10 9 9 9 9 9 9 9 9 9 9 8 9 9 9 9 9 8 7 7 7 6 6 7 6
6 6 6 7 6 6 7 7 7 8 8 8 8 9 9 9 10 10 10 9 9 8 8 8 8 9 9 9 9 9 9 9 8 8 9 9 9 7 7 6 6 6 6 6
5 6 6 6 6 6 6 7 7 8 8 8 8 9 9 9 9 10 10 9 9 9 8 8 8 8 8 8 8 9 8 8 7 7 8 8 8 7 7 6 6 6 6 6
5 5 5 5 5 6 6 6 6 6 7 7 7 7 7 8 8 9 9 9 9 8 8 8 8 7 7 7 8 8 8 7 6 6 7 7 7 7 6 6 6 6 6 7

GFSCGP_700_temp_072.txt.gz
Temp
13 14 15 16 16 16 16 16 17 17 17 17 18 18 18 18 17 17 17 17 16 16 15 14 13 13 13 12 12 12 12 11 10 9 9 9 9 9 9 9 9 9 9 9
14 14 15 15 15 15 16 16 17 17 17 17 18 18 18 18 18 17 17 15 17 16 15 14 14 13 13 12 12 12 12 12 10 10 7 8 9 10 9 9 9 9 9 9
14 16 15 14 15 15 16 16 17 17 17 16 17 17 18 18 18 18 18 17 17 17 15 15 14 13 13 13 12 11 10 11 11 9 9 9 9 9 9 9 9 9 8 9
15 15 14 14 15 15 16 16 16 16 17 17 18 19 19 18 18 18 18 18 18 18 17 15 14 14 13 12 11 10 9 10 11 11 10 10 10 9 9 9 8 8 8 8
15 14 14 14 15 15 15 16 15 16 16 17 18 18 19 18 18 19 18 18 18 18 18 16 14 14 13 12 12 11 10 8 10 11 10 11 10 9 9 9 8 8 8 8
15 15 14 15 15 15 15 15 15 16 17 18 18 18 19 19 19 18 18 18 18 18 17 17 15 15 15 13 13 13 14 11 12 11 11 11 10 10 9 9 8 8 8 7
14 14 14 14 15 15 14 15 17 18 19 19 18 18 18 18 18 18 18 18 18 18 17 17 17 17 15 14 13 12 12 11 10 10 10 10 10 10 10 9 8 7 7 7
15 16 15 15 14 16 15 16 17 18 19 20 16 18 18 17 17 17 18 18 18 18 18 17 16 16 15 14 13 12 12 10 10 10 11 10 10 10 9 9 8 7 6 6
16 16 15 15 15 15 16 15 16 17 18 18 19 19 17 18 17 17 17 18 18 17 17 17 16 15 14 14 14 12 11 11 10 11 11 10 11 10 10 9 8 7 6 6
15 16 15 15 14 15 15 16 16 17 18 18 19 18 18 18 18 17 16 17 17 17 17 16 15 15 13 13 12 11 10 10 10 11 11 10 11 10 9 9 9 8 7 7
15 15 16 15 15 16 15 15 16 17 17 19 19 19 18 17 17 16 17 17 17 16 16 15 15 14 13 13 11 10 8 10 10 11 10 11 10 10 9 8 8 8 8 8
14 15 15 15 16 15 16 16 16 17 17 17 17 18 17 17 17 17 17 17 17 16 15 15 14 14 13 13 13 13 10 10 10 10 10 10 10 9 8 8 8 8 8 8
13 14 15 16 15 15 15 15 15 16 16 17 18 18 17 17 17 17 17 17 16 16 15 14 14 13 13 13 13 13 11 10 10 11 10 10 10 9 9 8 8 8 8 8
13 14 14 17 16 17 15 16 15 15 17 17 17 17 15 17 17 17 17 17 16 15 14 14 13 13 12 12 12 12 12 11 11 11 10 10 10 9 9 9 9 8 7 7
12 13 14 15 14 16 16 16 16 15 16 17 18 17 15 15 16 16 16 16 16 15 14 14 14 13 13 12 12 12 11 11 11 11 10 10 10 9 9 9 9 8 7 6
12 13 12 14 14 15 15 16 15 15 15 15 16 14 14 15 15 15 15 15 15 15 14 13 14 13 13 12 12 12 11 11 11 11 11 10 10 9 9 9 9 8 8 6
12 12 12 15 14 14 14 13 15 13 13 14 16 14 14 15 15 15 15 15 15 14 14 13 13 13 12 12 11 10 11 11 11 11 11 10 10 9 10 9 9 8 7 6
11 12 12 14 13 15 11 13 12 12 14 14 14 14 14 14 15 14 15 15 15 15 13 13 13 13 12 12 12 11 12 11 10 10 11 11 10 10 10 9 9 8 7 7
11 11 12 13 14 11 11 12 11 12 12 14 14 14 14 14 14 14 14 14 14 14 13 13 13 13 13 12 11 11 11 11 11 11 11 11 10 10 10 9 10 8 7 7
10 11 11 12 13 14 12 12 12 12 12 13 13 13 13 13 13 12 12 13 13 13 13 12 12 11 12 11 11 11 11 11 11 11 10 10 10 10 9 9 9 8 7 7
9 10 10 11 12 10 11 11 11 10 10 12 12 12 12 12 12 12 12 12 11 11 11 10 11 10 10 10 10 10 10 10 10 10 10 10 9 9 9 9 9 9 8 7
9 10 10 10 11 11 10 10 9 10 10 10 11 11 11 11 11 11 11 11 10 10 10 10 9 10 10 9 9 9 9 9 10 10 10 9 9 8 9 9 8 8 8 7
7 7 9 8 7 9 9 10 9 9 9 10 10 10 10 10 10 10 10 10 10 10 10 9 9 9 9 9 9 9 9 9 9 9 9 9 9 8 8 8 8 8 8 8
7 7 6 7 6 7 7 7 8 8 8 8 8 9 9 9 9 9 9 9 9 9 9 9 9 9 9 9 9 9 9 9 8 8 8 8 8 8 8 8 7 7 7 7
6 6 5 4 6 6 6 7 7 7 7 8 8 8 9 9 9 9 9 9 9 9 8 8 8 8 8 8 8 8 8 8 7 8 7 7 7 7 7 7 6 7 7 7
5 5 6 6 5 5 6 6 7 7 7 7 7 7 7 8 7 7 7 7 8 8 8 8 8 8 7 7 7 7 7 7 8 7 7 7 6 6 6 6 6 6 6 7